User: anonymous   Login
Location: La Brionne
(46.1728°N, 1.7849°E)
Time: 05:34:09
(UTC+00:00)
Language:

Cosmos 1707 - Orbit

View from above orbital plane
View from above orbital plane
View from above satellite
View from above satellite

Ground track
Ground track

The orbit data is extracted from the following two-line orbital elements,

1 16326U 85113A   21261.47204368  .00000752  00000-0  38758-4 0  9991
2 16326  82.5089 119.6674 0009669 336.9183  23.1614 15.14824123952520
Epoch (UTC): 18 September 2021 11:19:44
Eccentricity: 0.0009669
inclination: 82.5089°
perigee height: 515 km
apogee height: 528 km
right ascension of ascending node: 119.6674°
argument of perigee: 336.9183°
revolutions per day: 15.14824123
mean anomaly at epoch: 23.1614°
orbit number at epoch: 95252

The dashed part of the orbit path shows where the satellite is in the earth's shadow,  

DLR